Weather History for Fort Indiantown Gap, PA

Change the Weather History Date:

Saturday, January 19, 2013

  Actual Average Record
Temperature  
Mean Temperature 34 °F -  
Max Temperature 51 °F 32 °F 51 °F (2013)
Min Temperature 18 °F 21 °F 12 °F (2005)
Degree Days  
Heating Degree Days 30    
Moisture  
Dew Point 23 °F    
Average Humidity 73    
Maximum Humidity 99    
Minimum Humidity 34    
Precipitation  
Precipitation 0.00 in - - ()
Sea Level Pressure  
Sea Level Pressure 30.16 in    
Wind  
Wind Speed 2 mph (SW)    
Max Wind Speed 12 mph    
Max Gust Speed -    
Visibility 10 miles    
Events      
Averages and records for this station are not official NWS values.
T = Trace of Precipitation, MM = Missing Value Source: NWS Daily Summary

Daily Weather History Graph

Daily Weather History Graph

Search for Another Location

Airport:

Trip Planner

Search our weather history database for the weather conditions in past years. The results will help you decide how hot, cold, wet, or windy it might be!

Date:

Astronomy

Jan. 19, 2013 Rise Set
Actual Time 7:25 AM EST 5:09 PM EST
Civil Twilight 6:55 AM EST 5:38 PM EST
Nautical Twilight 6:22 AM EST 6:12 PM EST
Astronomical Twilight 5:49 AM EST 6:44 PM EST
Moon 11:34 AM EST (1/19) 12:57 AM EST (1/19)
Length of Visible Light 10h 43m
Length of Day
9h 43m
First Quarter, 57% of the Moon is Illuminated
Jan 19
First Quarter
Jan 26
Full
Feb 3
Last Quarter
Feb 10
New
Feb 17
First Quarter

Hourly Weather History & Observations

Time (EST) Temp. Windchill Dew Point Humidity Pressure Visibility Wind Dir Wind Speed Gust Speed Precip Events Conditions
12:55 AM 19.2 °F - 15.6 °F 86% 30.39 in 10.0 mi Calm Calm - N/A   Clear
1:55 AM 18.9 °F - 16.2 °F 89% 30.37 in 10.0 mi Calm Calm - N/A   Clear
2:55 AM 19.2 °F - 16.3 °F 89% 30.35 in 10.0 mi Calm Calm - N/A   Scattered Clouds
3:55 AM 19.4 °F - 18.0 °F 94% 30.33 in 10.0 mi Calm Calm - N/A   Overcast
4:55 AM 21.7 °F - 18.9 °F 89% 30.31 in 10.0 mi Calm Calm - N/A   Overcast
5:55 AM 22.1 °F - 18.0 °F 84% 30.30 in 10.0 mi Calm Calm - N/A   Mostly Cloudy
6:55 AM 19.6 °F - 19.0 °F 98% 30.30 in 10.0 mi Calm Calm - N/A   Clear
7:55 AM 20.5 °F - 19.6 °F 96% 30.30 in 10.0 mi Calm Calm - N/A   Clear
9:55 AM 32.4 °F - 23.0 °F 68% 30.29 in 10.0 mi Calm Calm - N/A   Clear
10:55 AM 36.1 °F 32.3 °F 24.3 °F 62% 30.26 in 10.0 mi SSW 4.6 mph - N/A   Clear
11:55 AM 41.9 °F 36.3 °F 24.1 °F 49% 30.20 in 10.0 mi SSW 9.2 mph - N/A   Clear
12:55 PM 46.2 °F 40.8 °F 24.6 °F 43% 30.15 in 10.0 mi SW 11.5 mph - N/A   Partly Cloudy
1:55 PM 49.3 °F - 24.3 °F 38% 30.12 in 10.0 mi SW 9.2 mph - N/A   Clear
2:55 PM 49.8 °F - 23.0 °F 35% 30.08 in 10.0 mi WSW 8.1 mph - N/A   Mostly Cloudy
3:55 PM 51.1 °F - 23.5 °F 34% 30.06 in 10.0 mi SSW 8.1 mph - N/A   Mostly Cloudy
4:55 PM 49.3 °F - 23.5 °F 36% 30.04 in 10.0 mi SSW 5.8 mph - N/A   Mostly Cloudy
5:55 PM 39.4 °F - 27.5 °F 62% 30.04 in 10.0 mi Calm Calm - N/A   Clear
6:55 PM 37.0 °F - 26.4 °F 65% 30.04 in 10.0 mi Calm Calm - N/A   Clear
7:55 PM 34.2 °F - 27.9 °F 78% 30.03 in 10.0 mi Calm Calm - N/A   Clear
8:55 PM 32.0 °F - 28.8 °F 88% 30.00 in 10.0 mi Calm Calm - N/A   Clear
9:55 PM 30.4 °F - 28.9 °F 94% 29.98 in 10.0 mi Calm Calm - N/A   Clear
10:55 PM 28.9 °F - 28.6 °F 99% 29.95 in 10.0 mi Calm Calm - N/A   Clear
11:55 PM 30.0 °F - 28.4 °F 94% 29.90 in 10.0 mi Calm Calm - N/A   Mostly Cloudy